Weather Roundup
Issued by NWS Chicago, IL

Home | Current Version | Previous Version | Graphics & Text | Print | Product List | Glossary On
Versions: 1 2 3 4 5 6 7 8 9 10 11 12 13 14 15 16 17 18 19 20 21 22 23 24 25 26 27 28 29 30 31 32 33 34 35 36 37 38 39 40 41 42 43 44 45 46 47 48 49 50
000
NZUS59 KLOT 270321
HRRLOT

CHICAGO AREA WEATHER ROUNDUP
NATIONAL WEATHER SERVICE CHICAGO/ROMEOVILLE IL
1000 PM CDT SUN APR 26 2015

NOTE: "FAIR" INDICATES FEW OR NO CLOUDS BELOW 12,000 FEET WITH NO
SIGNIFICANT WEATHER AND/OR OBSTRUCTIONS TO VISIBILITY.

* THESE STATIONS ARE NOT UNDER NWS QUALITY CONTROL. THEY ALSO MAY NOT
  REPORT WEATHER SUCH AS PRECIPITATION OR FOG.

ILZ005-006-012>014-019>023-270400-
NORTHEAST ILLINOIS

CITY           SKY/WX    TMP DP  RH WIND       PRES   REMARKS
OHARE          CLEAR     44  24  45 N12       30.03R
MIDWAY         PTCLDY    46  26  45 N9        30.03R
AURORA         CLEAR     43  27  53 CALM      30.04R
LANSING*       CLEAR     43  27  53 N9        30.02S
JOLIET*        CLEAR     46  28  48 N3        30.03R
WAUKEGAN       CLEAR     43  29  57 N8        30.03S
DUPAGE AIRPORT CLEAR     40  26  57 NE7       30.03R
WHEELING       CLEAR     44  25  47 N6        30.05R
KANKAKEE*      CLEAR     43  30  61 N3        30.03R
MORRIS*        CLEAR     44  30  59 CALM      30.00S
LEWIS AIRPORT* CLEAR     40  27  59 NE7       30.03R
NORTHERLY IS     N/A     45  29  53 N9          N/A
$$

WIZ051-052-058>065-066-070>072-270400-
SOUTHEAST WISCONSIN

CITY           SKY/WX    TMP DP  RH WIND       PRES   REMARKS
MILWAUKEE      CLEAR     43  29  57 N12       30.06S
KENOSHA*       CLEAR     42  29  59 N8        30.05R
RACINE*        CLEAR     42  29  59 N12       30.06R
BURLINGTON     CLEAR     40  25  55 N3        30.05S
WAUKESHA       CLEAR     41  28  60 CALM      30.06S
WEST BEND      CLEAR     41  28  60 N3        30.07R
$$

INZ001>003-010>013-019-020-270400-
NORTHWEST INDIANA

CITY           SKY/WX    TMP DP  RH WIND       PRES   REMARKS
GARY*          CLEAR     44  28  52 NW12      30.03R
MICHIGAN CITY* NOT AVBL
RENSSELAER*    NOT AVBL
VALPARAISO     CLEAR     42  27  55 N9        30.00R
$$

LMZ740>746-270400-
SOUTHERN LAKE MICHIGAN

STATION/POSITION TIME  SKY/WX   TEMP WIND        PRES    VSBY
                                AIR  DIR/SP/G
                 (UTC)          (F)  (DEG/KT/KT) (MB)    (MI)
HARRISON CRIB    0300            42  340/ 17/ 20   N/A
BURNHAM HARBOR   0300            45  340/ 12/ 15   N/A
CALUMET HARBOR   0200            44  330/  7/  9   N/A
BURNS HARBOR     0200            44  350/  8/ 10 1016.6R
MICHIGAN CITY    0300            41  310/  9/ 12   N/A
$$

ABBREVIATIONS USED IN REMARKS
   TC - TEMPERATURE IN CELSIUS
  WCI - WIND CHILL INDEX
   HX - HEAT INDEX
  VSB - VISIBILITY
$$



USA.gov is the U.S. government's official web portal to all federal, state and local government web resources and services.